TimeCST,TemperatureF,Dew PointF,Humidity,Sea Level PressureIn,VisibilityMPH,Wind Direction,Wind SpeedMPH,Gust SpeedMPH,PrecipitationIn,Events,Conditions,WindDirDegrees,DateUTC
12:05 AM,15.8,8.6,73,30.10,10.0,SSE,6.9,-,N/A,,Clear,160,2012-12-22 06:05:00
12:25 AM,15.8,8.6,73,30.09,10.0,SSE,6.9,-,N/A,,Clear,150,2012-12-22 06:25:00
12:45 AM,15.8,10.4,79,30.08,10.0,South,9.2,-,N/A,,Clear,170,2012-12-22 06:45:00
1:05 AM,17.6,10.4,73,30.07,10.0,SSE,6.9,-,N/A,,Clear,160,2012-12-22 07:05:00
1:25 AM,17.6,10.4,73,30.06,10.0,SE,3.5,-,N/A,,Clear,140,2012-12-22 07:25:00
1:45 AM,15.8,10.4,79,30.05,10.0,South,5.8,-,N/A,,Clear,170,2012-12-22 07:45:00
2:05 AM,15.8,10.4,79,30.05,10.0,South,4.6,-,N/A,,Clear,180,2012-12-22 08:05:00
2:30 AM,17.6,12.2,79,30.05,10.0,Calm,Calm,-,N/A,,Clear,0,2012-12-22 08:30:00
2:35 AM,17.6,12.2,79,30.05,10.0,Calm,Calm,-,N/A,,Clear,0,2012-12-22 08:35:00
2:55 AM,17.6,12.2,79,30.04,10.0,South,3.5,-,N/A,,Clear,180,2012-12-22 08:55:00
3:15 AM,17.6,12.2,79,30.03,10.0,South,3.5,-,N/A,,Clear,180,2012-12-22 09:15:00
3:35 AM,17.6,12.2,79,30.02,10.0,South,5.8,-,N/A,,Clear,170,2012-12-22 09:35:00
3:55 AM,17.6,12.2,79,30.01,10.0,South,8.1,-,N/A,,Clear,180,2012-12-22 09:55:00
4:15 AM,17.6,12.2,79,30.00,10.0,South,9.2,-,N/A,,Clear,180,2012-12-22 10:15:00
4:35 AM,17.6,12.2,79,29.99,10.0,South,5.8,-,N/A,,Clear,170,2012-12-22 10:35:00
4:55 AM,17.6,12.2,79,29.98,10.0,South,3.5,-,N/A,,Clear,170,2012-12-22 10:55:00
5:15 AM,17.6,12.2,79,29.97,10.0,South,4.6,-,N/A,,Clear,180,2012-12-22 11:15:00
5:35 AM,15.8,12.2,86,29.97,10.0,Calm,Calm,-,N/A,,Clear,0,2012-12-22 11:35:00
6:15 AM,14.0,10.4,86,29.96,10.0,South,3.5,-,N/A,,Clear,180,2012-12-22 12:15:00
6:35 AM,14.0,10.4,86,29.95,7.0,South,3.5,-,N/A,,Clear,190,2012-12-22 12:35:00
6:55 AM,12.2,10.4,92,29.95,7.0,South,4.6,-,N/A,,Clear,190,2012-12-22 12:55:00
7:15 AM,12.2,10.4,92,29.95,7.0,Calm,Calm,-,N/A,,Clear,0,2012-12-22 13:15:00
7:35 AM,12.2,10.4,92,29.95,7.0,Calm,Calm,-,N/A,,Clear,0,2012-12-22 13:35:00
7:56 AM,12.2,10.4,92,29.95,7.0,Calm,Calm,-,N/A,,Clear,0,2012-12-22 13:56:00
8:15 AM,12.2,10.4,92,29.95,7.0,Calm,Calm,-,N/A,,Clear,0,2012-12-22 14:15:00
8:35 AM,14.0,10.4,86,29.95,7.0,NE,4.6,-,N/A,,Clear,40,2012-12-22 14:35:00
8:56 AM,15.8,12.2,86,29.96,7.0,Calm,Calm,-,N/A,,Clear,0,2012-12-22 14:56:00
9:15 AM,15.8,12.2,86,29.97,7.0,NNE,3.5,-,N/A,,Clear,30,2012-12-22 15:15:00
9:35 AM,15.8,12.2,86,29.98,7.0,Calm,Calm,-,N/A,,Clear,0,2012-12-22 15:35:00
9:56 AM,17.6,12.2,79,29.98,7.0,NNE,4.6,-,N/A,,Clear,30,2012-12-22 15:56:00
10:15 AM,17.6,12.2,79,29.97,7.0,NE,4.6,-,N/A,,Clear,40,2012-12-22 16:15:00
10:35 AM,19.4,14.0,80,29.97,7.0,NE,5.8,-,N/A,,Clear,40,2012-12-22 16:35:00
10:55 AM,19.4,14.0,80,29.97,10.0,NNE,5.8,-,N/A,,Clear,30,2012-12-22 16:55:00
11:15 AM,19.4,14.0,80,29.96,10.0,NE,4.6,-,N/A,,Clear,40,2012-12-22 17:15:00
11:35 AM,21.2,15.8,80,29.95,7.0,NE,5.8,-,N/A,,Clear,40,2012-12-22 17:35:00
11:55 AM,23.0,15.8,74,29.95,7.0,NE,4.6,-,N/A,,Clear,40,2012-12-22 17:55:00
12:15 PM,23.0,17.6,80,29.95,7.0,NNE,3.5,-,N/A,,Clear,30,2012-12-22 18:15:00
12:35 PM,23.0,17.6,80,29.95,10.0,Calm,Calm,-,N/A,,Clear,0,2012-12-22 18:35:00
12:55 PM,26.6,19.4,74,29.95,10.0,North,5.8,-,N/A,,Clear,10,2012-12-22 18:55:00
1:15 PM,26.6,19.4,74,29.95,10.0,NE,3.5,-,N/A,,Clear,40,2012-12-22 19:15:00
1:35 PM,26.6,19.4,74,29.95,10.0,NE,3.5,-,N/A,,Clear,40,2012-12-22 19:35:00
1:55 PM,28.4,19.4,69,29.95,10.0,NNE,4.6,-,N/A,,Clear,30,2012-12-22 19:55:00
2:15 PM,28.4,19.4,69,29.95,10.0,NNE,11.5,16.1,N/A,,Clear,30,2012-12-22 20:15:00
2:36 PM,28.4,19.4,69,29.96,10.0,North,8.1,-,N/A,,Clear,10,2012-12-22 20:36:00
2:55 PM,26.6,17.6,69,29.97,10.0,NNE,11.5,-,N/A,,Clear,30,2012-12-22 20:55:00
3:15 PM,26.6,17.6,69,29.98,10.0,North,6.9,-,N/A,,Clear,10,2012-12-22 21:15:00
3:35 PM,24.8,17.6,74,29.98,10.0,NNE,8.1,-,N/A,,Clear,20,2012-12-22 21:35:00
3:55 PM,24.8,17.6,74,29.99,10.0,North,6.9,-,N/A,,Clear,10,2012-12-22 21:55:00
4:15 PM,23.0,15.8,74,29.99,10.0,NNW,9.2,-,N/A,,Clear,340,2012-12-22 22:15:00
4:35 PM,23.0,15.8,74,29.99,10.0,North,8.1,-,N/A,,Clear,350,2012-12-22 22:35:00
4:55 PM,21.2,14.0,74,29.99,10.0,North,6.9,-,N/A,,Clear,350,2012-12-22 22:55:00
5:15 PM,19.4,14.0,80,29.99,10.0,North,9.2,-,N/A,,Clear,350,2012-12-22 23:15:00
5:35 PM,19.4,14.0,80,30.01,10.0,North,8.1,-,N/A,,Clear,350,2012-12-22 23:35:00
5:55 PM,19.4,12.2,74,30.01,10.0,North,9.2,-,N/A,,Clear,350,2012-12-22 23:55:00
6:15 PM,17.6,12.2,79,30.01,10.0,North,8.1,-,N/A,,Clear,360,2012-12-23 00:15:00
6:35 PM,17.6,10.4,73,30.02,10.0,North,10.4,-,N/A,,Clear,350,2012-12-23 00:35:00
6:55 PM,17.6,10.4,73,30.02,10.0,North,13.8,17.3,N/A,,Clear,360,2012-12-23 00:55:00
7:15 PM,15.8,10.4,79,30.03,10.0,North,13.8,-,N/A,,Clear,360,2012-12-23 01:15:00
7:35 PM,14.0,8.6,79,30.04,10.0,North,9.2,-,N/A,,Clear,360,2012-12-23 01:35:00
7:55 PM,14.0,8.6,79,30.04,10.0,North,10.4,-,N/A,,Clear,350,2012-12-23 01:55:00
8:15 PM,12.2,8.6,85,30.05,10.0,North,9.2,-,N/A,,Clear,350,2012-12-23 02:15:00
8:35 PM,12.2,8.6,85,30.05,10.0,North,9.2,-,N/A,,Clear,360,2012-12-23 02:35:00
8:55 PM,12.2,8.6,85,30.05,10.0,North,6.9,-,N/A,,Clear,10,2012-12-23 02:55:00
9:15 PM,12.2,6.8,79,30.05,10.0,North,10.4,-,N/A,,Clear,10,2012-12-23 03:15:00
9:35 PM,12.2,6.8,79,30.05,10.0,North,8.1,-,N/A,,Clear,360,2012-12-23 03:35:00
9:55 PM,12.2,6.8,79,30.06,10.0,North,8.1,-,N/A,,Clear,350,2012-12-23 03:55:00
10:15 PM,12.2,5.0,73,30.05,10.0,North,8.1,-,N/A,,Clear,10,2012-12-23 04:15:00
10:36 PM,12.2,5.0,73,30.05,10.0,NNE,9.2,-,N/A,,Clear,20,2012-12-23 04:36:00
10:55 PM,12.2,5.0,73,30.04,10.0,NNE,8.1,-,N/A,,Clear,20,2012-12-23 04:55:00
11:15 PM,10.4,5.0,79,30.06,10.0,North,9.2,-,N/A,,Clear,10,2012-12-23 05:15:00
11:36 PM,10.4,5.0,79,30.05,10.0,NNE,9.2,-,N/A,,Clear,20,2012-12-23 05:36:00
11:55 PM,10.4,5.0,79,30.04,10.0,NNE,10.4,-,N/A,,Clear,20,2012-12-23 05:55:00